Date String (YYYY-MM-DD hh:mm:ss) UTC,Instrument flags,Ambient pressure (hPa),Sample flow (lpm),Bypass flow (lpm),Sample temperature (°C),Ambient temperature (°C),ASC tube jacket temperature (°C),LED temperature (°C),Box temperature (°C),Sample RH (%),Span deviation,Mass concentration (μg/m³),Mass concentration (μg/m³),Mass concentration (μg/m³)
DateTimeUTC,F1_M11,P_M11,Q1_M11,Q2_M11,T1_M11,T2_M11,T3_M11,T4_M11,T5_M11,U1_M11,ZSPAN_M11,X0_M11,X2_M11,X1_M11
2021-11-15 17:00:00,,0828.5,5.00,0.00,29.7,28.9,00.0,38.6,31.4,07.7,0000.0,0001.12,0000.49,0000.25
2021-11-15 17:01:00,,0828.5,5.00,0.00,29.7,28.9,00.0,38.6,31.4,07.8,0000.0,0000.99,0000.50,0000.25
2021-11-15 17:02:00,,0829.1,5.00,0.00,29.7,28.9,00.0,38.6,31.4,07.7,0000.0,0001.01,0000.49,0000.25
2021-11-15 17:03:00,,0829.1,5.01,0.00,29.7,28.9,00.0,38.6,31.4,07.8,0000.0,0001.01,0000.50,0000.26
2021-11-15 17:04:00,,0829.0,5.00,0.00,29.7,28.9,00.0,38.6,31.3,07.7,0000.0,0002.47,0000.50,0000.26
2021-11-15 17:05:00,,0828.9,4.99,0.00,29.7,28.9,00.0,38.6,31.3,07.9,0000.0,0003.58,0000.51,0000.26
2021-11-15 17:06:00,,0828.9,4.99,0.00,29.7,28.8,00.0,38.6,31.4,07.9,0000.0,0003.71,0000.53,0000.25
2021-11-15 17:07:00,,0828.8,5.01,0.00,29.7,28.8,00.0,38.6,31.4,07.8,0000.0,0003.90,0000.58,0000.26
2021-11-15 17:08:00,,0828.9,4.99,0.00,29.6,28.8,00.0,38.6,31.3,07.6,0000.0,0003.91,0000.59,0000.27
2021-11-15 17:09:00,,0828.8,5.00,0.00,29.6,28.8,00.0,38.6,31.3,07.7,0000.0,0003.91,0000.58,0000.26
2021-11-15 17:10:00,,0828.7,5.00,0.00,29.6,28.8,00.0,38.6,31.3,07.8,0000.0,0003.85,0000.53,0000.26
2021-11-15 17:11:00,,0828.6,5.00,0.00,29.6,28.8,00.0,38.6,31.3,07.8,0000.0,0003.73,0000.50,0000.26
2021-11-15 17:12:00,,0828.5,5.00,0.00,29.6,28.8,00.0,38.6,31.3,07.8,0000.0,0003.64,0000.49,0000.26
2021-11-15 17:13:00,,0828.8,5.01,0.00,29.6,28.8,00.0,38.6,31.3,07.9,0000.0,0003.61,0000.50,0000.26
2021-11-15 17:14:00,,0829.0,4.99,0.00,29.6,28.8,00.0,38.6,31.3,08.1,0000.0,0003.61,0000.49,0000.25
2021-11-15 17:15:00,,0829.2,5.00,0.00,29.6,28.8,00.0,38.6,31.3,08.1,0000.0,0002.17,0000.49,0000.25
2021-11-15 17:16:00,,0828.6,4.99,0.00,29.6,28.8,00.0,38.6,31.3,07.9,0000.0,0001.01,0000.47,0000.25
2021-11-15 17:17:00,,0828.8,5.00,0.00,29.6,28.8,00.0,38.6,31.3,07.7,0000.0,0000.85,0000.43,0000.26
2021-11-15 17:18:00,,0828.7,4.99,0.00,29.6,28.7,00.0,38.6,31.3,07.5,0000.0,0000.68,0000.38,0000.25
2021-11-15 17:19:00,,0828.7,5.02,0.00,29.6,28.7,00.0,38.6,31.3,07.1,0000.0,0000.72,0000.39,0000.25
2021-11-15 17:20:00,,0828.7,5.00,0.00,29.5,28.7,00.0,38.6,31.2,07.2,0000.0,0000.70,0000.39,0000.25
2021-11-15 17:21:00,,0828.7,5.00,0.00,29.5,28.7,00.0,38.6,31.2,07.1,0000.0,0001.29,0000.39,0000.25
2021-11-15 17:22:00,,0828.9,4.99,0.00,29.5,28.7,00.0,38.6,31.2,07.3,0000.0,0001.42,0000.38,0000.25
2021-11-15 17:23:00,,0829.3,5.00,0.00,29.5,28.7,00.0,38.6,31.2,07.6,0000.0,0001.47,0000.41,0000.25
2021-11-15 17:24:00,,0828.7,5.00,0.00,29.5,28.7,00.0,38.6,31.2,08.0,0000.0,0001.44,0000.40,0000.26
2021-11-15 17:25:00,,0828.7,5.00,0.00,29.5,28.7,00.0,38.6,31.2,08.1,0000.0,0003.41,0000.46,0000.27
2021-11-15 17:26:00,,0828.8,5.00,0.00,29.5,28.7,00.0,38.6,31.2,08.1,0000.0,0004.49,0000.52,0000.27
2021-11-15 17:27:00,,0828.7,5.00,0.00,29.5,28.7,00.0,38.6,31.2,08.2,0000.0,0004.71,0000.57,0000.27
2021-11-15 17:28:00,,0828.7,5.00,0.00,29.5,28.7,00.0,38.6,31.1,08.3,0000.0,0004.68,0000.56,0000.28
2021-11-15 17:29:00,,0828.7,5.00,0.00,29.5,28.7,00.0,38.6,31.1,08.2,0000.0,0004.72,0000.58,0000.28
2021-11-15 17:30:00,,0828.7,5.00,0.00,29.5,28.7,00.0,38.6,31.2,08.4,0000.0,0004.72,0000.58,0000.28
2021-11-15 17:31:00,,0828.7,4.99,0.00,29.5,28.7,00.0,38.6,31.2,08.7,0000.0,0004.72,0000.59,0000.29
2021-11-15 17:32:00,,0828.7,5.00,0.00,29.5,28.6,00.0,38.5,31.1,08.9,0000.0,0004.19,0000.59,0000.30
2021-11-15 17:33:00,,0828.8,5.00,0.00,29.5,28.6,00.0,38.5,31.1,08.9,0000.0,0004.01,0000.59,0000.31
2021-11-15 17:34:00,,0828.7,5.00,0.00,29.5,28.6,00.0,38.5,31.1,09.1,0000.0,0005.03,0000.61,0000.31
2021-11-15 17:35:00,,0828.7,5.00,0.00,29.5,28.6,00.0,38.5,31.1,09.2,0000.0,0006.11,0000.62,0000.31
2021-11-15 17:36:00,,0828.9,5.01,0.00,29.5,28.6,00.0,38.5,31.1,09.1,0000.0,0003.88,0000.57,0000.32
2021-11-15 17:37:00,,0828.9,4.98,0.00,29.5,28.6,00.0,38.5,31.1,08.9,0000.0,0003.01,0000.50,0000.32
2021-11-15 17:38:00,,0828.9,5.01,0.00,29.4,28.6,00.0,38.5,31.1,09.1,0000.0,0002.80,0000.46,0000.32
2021-11-15 17:39:00,,0828.7,5.00,0.00,29.4,28.6,00.0,38.5,31.1,09.1,0000.0,0002.81,0000.47,0000.33
2021-11-15 17:40:00,,0829.1,5.00,0.00,29.4,28.6,00.0,38.5,31.0,09.1,0000.0,0002.77,0000.47,0000.34
2021-11-15 17:41:00,,0828.8,4.99,0.00,29.4,28.6,00.0,38.5,31.0,09.1,0000.0,0002.79,0000.48,0000.34
2021-11-15 17:42:00,,0828.7,5.01,0.00,29.4,28.6,00.0,38.5,31.0,09.0,0000.0,0002.83,0000.48,0000.34
2021-11-15 17:43:00,,0829.0,5.00,0.00,29.4,28.6,00.0,38.5,31.1,09.1,0000.0,0002.81,0000.47,0000.32
2021-11-15 17:44:00,,0829.1,5.00,0.00,29.4,28.6,00.0,38.5,31.1,09.0,0000.0,0002.83,0000.48,0000.32
2021-11-15 17:45:00,,0828.8,4.99,0.00,29.4,28.6,00.0,38.5,31.1,09.0,0000.0,0001.88,0000.47,0000.33
2021-11-15 17:46:00,,0828.7,5.01,0.00,29.4,28.6,00.0,38.5,31.0,09.1,0000.0,0000.80,0000.45,0000.32
2021-11-15 17:47:00,,0828.8,5.01,0.00,29.4,28.6,00.0,38.5,31.1,09.3,0000.0,0000.77,0000.44,0000.32
2021-11-15 17:48:00,,0828.7,5.00,0.00,29.5,28.6,00.0,38.5,31.1,09.2,0000.0,0000.77,0000.44,0000.33
2021-11-15 17:49:00,,0828.8,5.00,0.00,29.5,28.6,00.0,38.5,31.1,09.2,0000.0,0000.78,0000.44,0000.32
2021-11-15 17:50:00,,0828.7,5.00,0.00,29.5,28.6,00.0,38.5,31.1,09.4,0000.0,0000.82,0000.46,0000.32
2021-11-15 17:51:00,,0828.8,5.00,0.00,29.5,28.6,00.0,38.5,31.2,09.4,0000.0,0000.82,0000.46,0000.32
2021-11-15 17:52:00,,0829.1,4.99,0.00,29.5,28.7,00.0,38.5,31.1,09.2,0000.0,0000.77,0000.44,0000.31
2021-11-15 17:53:00,,0829.0,4.99,0.00,29.5,28.6,00.0,38.5,31.1,09.0,0000.0,0000.77,0000.45,0000.32
2021-11-15 17:54:00,,0828.6,5.00,0.00,29.5,28.6,00.0,38.5,31.1,08.8,0000.0,0000.78,0000.45,0000.32
2021-11-15 17:55:00,,0828.9,5.01,0.00,29.5,28.6,00.0,38.5,31.2,08.9,0000.0,0000.79,0000.46,0000.32
2021-11-15 17:56:00,,0828.6,4.98,0.00,29.5,28.6,00.0,38.5,31.2,08.6,0000.0,0000.69,0000.45,0000.32
2021-11-15 17:57:00,,0828.7,5.00,0.00,29.5,28.6,00.0,38.5,31.2,08.6,0000.0,0000.73,0000.47,0000.32
2021-11-15 17:58:00,,0828.9,5.00,0.00,29.5,28.6,00.0,38.5,31.2,08.9,0000.0,0000.74,0000.47,0000.31
2021-11-15 17:59:00,,0828.8,5.01,0.00,29.5,28.6,00.0,38.5,31.2,08.6,0000.0,0000.77,0000.47,0000.30
